Regional Weather Roundup
Issued by NWS Grand Forks, ND

Home | Current Version | Previous Version | Graphics & Text | Print | Product List | Glossary On
Versions: 1 2 3 4 5 6 7 8 9 10 11 12 13 14 15 16 17 18 19 20 21 22 23 24 25 26 27 28 29 30 31 32 33 34 35 36 37 38 39 40 41 42 43 44 45 46 47 48 49 50
000
ASUS43 KFGF 260731
RWRFGF
PRAIRIE TO PINES  WEATHER ROUNDUP
NATIONAL WEATHER SERVICE EASTERN NORTH DAKOTA/GRAND FORKS ND
200 AM CDT THU MAY 26 2016

 **SATELLITE DATA USED TO AUGMENT SKY COVER AT AUTOMATED STATIONS**
 *****  WEATHER ACROSS EASTERN NORTH DAKOTA  *****

CITY           SKY/WX    TMP DP  RH WIND       PRES   REMARKS
GRAND FORKS    CLOUDY    56  54  93 SW5       29.69F
GRAND FRKS AFB CLOUDY    56  56 100 W6        29.69F
GRAND FRKS NWS   N/A     55 N/A N/A MISG        N/A
DEVILS LAKE    MOCLDY    54  54 100 NW6       29.73F
FARGO          CLEAR     54  52  93 W5        29.72R
WAHPETON ARPT  CLOUDY    54  52  94 CALM      29.74R
$$

 ***** WEATHER ACROSS CENTRAL AND WESTERN NORTH DAKOTA  *****

CITY           SKY/WX    TMP DP  RH WIND       PRES   REMARKS
BISMARCK       CLEAR     50  48  93 W6        29.80R
MINOT          CLOUDY    58  55  90 SW12      29.74R
JAMESTOWN      PTCLDY    56  56 100 S3        29.73S
MINOT AFB      CLOUDY    54  52  94 W6        29.73S
GARRISON         N/A     54  51  90 W12       29.76F
WILLISTON      CLEAR     46  45  96 S7        29.81S
DICKINSON      CLEAR     42  39  89 W6        29.81R
HETTINGER      CLEAR     38  36  92 NW7       29.86S
$$

 *****  OTHER AIRPORT OBSERVATIONS IN OUR AREA  *****

CITY           SKY/WX    TMP DP  RH WIND       PRES   REMARKS
WALHALLA       FAIR      55  55 100 W7        29.65F
GRAFTON AIRPOR CLOUDY    57  57 100 SW14      29.69R
VALLEY CITY AR FAIR      55  55 100 SW15G21   29.74F
CANDO          CLOUDY    55  55 100 NW6       29.75F FOG
CAVALIER APRT  CLOUDY    57  57 100 W13       29.64F
GWINNER        FAIR      54  54 100 W9        29.75S
SHEYENNE NWR     N/A     49  49 100 W5        29.95S
ROLLA          LGT RAIN  54  54 100 N6        29.75F
 ***** THE ABOVE OBSERVATIONS ARE NON NWS ARE NOT QUALITY
       CONTROLLED AND MAY MIS-REPORT RAIN FOR SNOW...
$$

  *****  WEATHER ACROSS NORTHERN MINNESOTA  *****

CITY           SKY/WX    TMP DP  RH WIND       PRES   REMARKS
FLAG ISLAND    CLOUDY    57  54  88 SE17      29.71S
WARROAD        CLOUDY    59  55  88 SE15G22   29.70S
ROSEAU         CLOUDY    59  54  82 S16G23    29.69S
HALLOCK        CLOUDY    57  57 100 SW14      29.64S
THF RVR FALLS  CLOUDY    57  54  88 CALM      29.71F
BAUDETTE       CLOUDY    56  53  90 SE12      29.74F
WASKISH        CLOUDY    55  54  94 S5        29.75S
CROOKSTON      MOCLDY    57  57 100 W5        29.71R
STEPHEN NDAWN    N/A     57  57 100 SW9         N/A
GREENBUSH NDAW   N/A     57  57 100 S12         N/A
$$
  *****  WEATHER ACROSS CENTRAL AND WEST MINNESOTA  *****

CITY           SKY/WX    TMP DP  RH WIND       PRES   REMARKS
FOSSTON        PTCLDY    55  55 100 SE7       29.72F
BEMIDJI        CLOUDY    55  55  97 E6        29.74F
PARK RAPIDS    CLOUDY    59  56  89 S7        29.75R FOG
ELBOW LAKE     FAIR      58  50  76 W8        29.73F
WADENA         CLEAR     57  55  94 CALM      29.73S
DETROIT LAKES  MOCLDY    55  54  94 NE5       29.75S
MOORHEAD       CLEAR     54  54 100 W8        29.73R
FERGUS FALLS   CLOUDY    61  59  94 NE3       29.70R
MORRIS MN      CLOUDY    61  52  72 W10       29.73F
STAPLES        CLOUDY    59  57  94 SE5       29.74S FOG
$$
  *****  WEATHER ELSEWHERE ACROSS MINNESOTA  *****

CITY           SKY/WX    TMP DP  RH WIND       PRES   REMARKS
DULUTH         FOG       46  45  96 E10       29.82F VSB 1/4
INTRNTL FALLS  PTCLDY    56  50  80 SE6       29.78F
ELY            CLEAR     48  46  93 SE3       29.81F
CLOQUET        FOG       45  45 100 E3        29.83S VSB 1/4
WHEATON        CLOUDY    61  57  88 W5        29.75F
BRAINERD       FOG       55  55 100 SE5       29.78F VSB 3/4
HIBBING        MOCLDY    48  48 100 CALM      29.82F
ALEXANDRIA     CLOUDY    60  47  61 SW7       29.75S
SAINT CLOUD    CLOUDY    59  59 100 CALM      29.77F
MINNEAPOLIS    TSTM      66  63  90 CALM      29.79S
$$

  *****  WEATHER ACROSS SOUTH DAKOTA  *****

CITY           SKY/WX    TMP DP  RH WIND       PRES   REMARKS
SIOUX FALLS    CLOUDY    60  56  86 SW5       29.80F
BROOKINGS      CLOUDY    55  52  89 NW5       29.80
WATERTOWN      CLOUDY    59  51  75 SW9       29.79F
HURON          PTCLDY    55  51  86 NW5       29.82R
SISSETON         N/A     60  53  77 W13       29.75R
ABERDEEN       CLEAR     52  49  89 SW7       29.79F
MITCHELL       MOCLDY    61  55  81 NW7       29.83S
PIERRE         CLEAR     53  48  83 S5        29.83F
MOBRIDGE       CLEAR     49  45  86 CALM      29.80S
RAPID CITY     CLEAR     46  44  93 CALM      29.90S
$$

  *****  SOME WEATHER IN NEARBY STATES *****

CITY           SKY/WX    TMP DP  RH WIND       PRES   REMARKS
GLASGOW MT     PTCLDY    47  42  83 W7        29.83F
GREAT FALLS MT PTCLDY    45  42  89 SW10      29.94R
CHEYENNE WY    CLEAR     41  34  76 W12       30.04S
SCOTTSBLUFF NE PTCLDY    47  42  83 W6        29.94F
OMAHA NE       CLOUDY    64  57  78 N7        29.77F
DES MOINES IA  HAIL      72  64  76 S24       29.82R
DAVENPORT IA   CLOUDY    73  63  70 S10       29.89S
CHICAGO IL     MOCLDY    63  61  93 SE3       29.92F
EAU CLAIRE WI  FOG       57  57 100 NE3       29.79F VSB 1/4
LA CROSSE WI   PTCLDY    64  63  96 SE7       29.82F
$$

  *****  SOME NATIONAL WEATHER *****

CITY           SKY/WX    TMP DP  RH WIND       PRES   REMARKS
LA GUARDIA NY  MOCLDY    77  54  44 W5        30.06R
RALEIGH NC     MOCLDY    68  61  78 SW7       30.15S
ATLANTA GA     CLOUDY    71  58  63 S3        30.15F
NEW ORLEANS LA PTCLDY    76  71  85 SE8       30.07F
OKLAHOMA CITY  CLOUDY    77  74  90 S17       29.87F
ALBUQUERQUE NM PTCLDY    58  14  17 SE8       29.99S
SALT LAKE CITY PTCLDY    55  44  66 W5        30.02F
LOS ANGELES CA PTCLDY    58  53  84 SW6       30.08F
BOISE ID       CLEAR     54  44  69 SE7       29.99S
SEATTLE WA     MOCLDY    54  44  69 S10       30.21R
$$

*** WEATHER ACROSS MANITOBA...SASKATCHEWAN AND ONTARIO ***
                ***ONTARIO***

CITY           SKY/WX    TMP DP  RH WIND       PRES   REMARKS
GERALDTON      CLOUDY    57  43  58 E7        29.98F
THUNDER BAY    CLOUDY    50  46  87 E6        29.88F
SIOUX LOOKOUT  CLOUDY    55  46  71 SE3       29.86F
TORONTO        PTCLDY    66  55  68 CALM      30.03S
BIG TROUT LK   PTCLDY    54  46  76 SE12      29.93F
PICKLE LAKE    NOT AVBL
DRYDEN         CLOUDY    54  48  82 E9        29.81F
KENORA         CLOUDY    55  54  94 E12G18    29.76F
$$
                *** MANITOBA***

CITY           SKY/WX    TMP DP  RH WIND       PRES   REMARKS
BRANDON        LGT RAIN  54  52  94 NE8       29.78S
DAUPHIN        CLOUDY    54  54 100 N5        29.81F
ISLAND LAKE    PTCLDY    55  50  82 SE5       29.85F
PILOT MOUND      N/A     54  54 100 N10         N/A
THE PAS        CLEAR     48  43  81 CALM      29.85S
THOMPSON       PTCLDY    45  43  93 CALM      29.84S
WINNIPEG       LGT RAIN  57  55  94 NE14G23   29.66F FOG
LYNN LAKE      MOCLDY    52  46  82 W5        29.84S
CHURCHILL      LGT RAIN  34  32  93 E13       29.92F WCI  25
GILLAM         PTCLDY    52  46  82 S6        29.85F
$$
                ***SASKATCHEWAN***

CITY           SKY/WX    TMP DP  RH WIND       PRES   REMARKS
ESTEVAN        CLOUDY    54  52  94 N3        29.76F
KINDERSLEY     PTCLDY    50  45  81 N7        29.90S
LLOYDMINSTER   CLEAR     48  45  87 SW7       29.89S
PRINCE ALBERT  PTCLDY    43  41  93 W2        29.86F
REGINA         LGT RAIN  52  50  93 N8        29.83F
YORKTON        LGT RAIN  54  52  94 N9        29.85S
N. BATTLEFORD  CLEAR     45  45 100 N2        29.91S
LA RONGE       PTCLDY    46  41  81 CALM      29.86S
SASKATOON      MOCLDY    54  46  76 N7        29.88F
SWIFT CURRENT  LGT RAIN  50  50 100 NE2       29.88S
$$
NOTE: THESE ARE AUTOMATED STATIONS WITH LIMITED QUALITY CONTROL
      "FAIR" INDICATES FEW OR NO CLOUDS BELOW 12,000 FEET WITH NO
      SIGNIFICANT WEATHER AND/OR OBSTRUCTIONS TO VISIBILITY.
      SKY/WX - SKY CONDITION AND SIGNIFICANT WEATHER.
      TMP - AIR TEMPERATURE.    DP   - DEWPOINT TEMPERATURE.
      RH  - RELATIVE HUMIDITY.  PRES - PRESSURE.
      HX  - HEAT INDEX.         WCI  - WIND CHILL INDEX.
$



USA.gov is the U.S. government's official web portal to all federal, state and local government web resources and services.